Zurück zum Katalog

KUIPER-00107

AktivKommunikationLEO
NORAD 65145·PAYLOAD·🇺🇸 United States

Gestartet Aug 11, 2025 von Cape Canaveral Space Force Station

Loading…

Nächste Überflüge (nächste 24 Stunden)

TLE

AktuellSource: CelesTrak SupGP

Epoche: Sep 14, 2026, 15:49 UTC

1 65145C 25171P   26257.65964120 -.00006070  00000+0 -79487-3 0  2571
2 65145  51.9013  32.4734 0000558  99.4551  23.0858 14.79925060    16

Verfolge KUIPER-00107 in Echtzeit mit AllMySat

Download on the App Store